Time,TemperatureF,DewpointF,PressureIn,WindDirection,WindDirectionDegrees,WindSpeedMPH,WindSpeedGustMPH,Humidity,HourlyPrecipIn,Conditions,Clouds,dailyrainin,SoftwareType,DateUTC
2013-02-10 00:00:00,59.2,59.2,29.79,WSW,257,5.8,5.8,100,0.00,RA,,0.00,WeatherDisplay:10.37,2013-02-10 06:00:00,
2013-02-10 00:05:00,59.2,59.2,29.79,West,267,5.8,5.8,100,0.00,RA,,0.00,WeatherDisplay:10.37,2013-02-10 06:05:00,
2013-02-10 00:10:00,59.4,59.4,29.79,SSE,147,3.5,0.0,100,0.00,OVC,,0.00,WeatherDisplay:10.37,2013-02-10 06:10:00,
2013-02-10 00:15:00,59.4,59.4,29.79,SE,141,3.5,3.5,100,0.00,OVC,,0.00,WeatherDisplay:10.37,2013-02-10 06:15:00,
2013-02-10 00:20:00,59.7,59.7,29.79,SE,138,5.8,5.8,100,0.00,OVC,,0.00,WeatherDisplay:10.37,2013-02-10 06:20:00,
2013-02-10 00:25:00,59.7,59.7,29.79,ESE,116,2.3,0.0,100,0.00,OVC,,0.00,WeatherDisplay:10.37,2013-02-10 06:25:00,
2013-02-10 00:30:00,59.9,59.9,29.79,WNW,282,5.8,5.8,100,0.00,OVC,,0.00,WeatherDisplay:10.37,2013-02-10 06:30:00,
2013-02-10 00:35:00,60.1,60.1,29.76,ESE,104,4.6,0.0,100,0.00,OVC,,0.00,WeatherDisplay:10.37,2013-02-10 06:35:00,
2013-02-10 00:40:00,60.1,60.1,29.76,ESE,119,5.8,5.8,100,0.00,OVC,,0.00,WeatherDisplay:10.37,2013-02-10 06:40:00,
2013-02-10 00:45:00,60.1,60.1,29.76,SE,146,3.5,3.6,100,0.00,OVC,,0.00,WeatherDisplay:10.37,2013-02-10 06:45:00,
2013-02-10 00:50:00,60.3,60.3,29.76,SE,131,5.8,5.8,100,0.00,OVC,,0.00,WeatherDisplay:10.37,2013-02-10 06:50:00,
2013-02-10 00:55:00,60.4,60.4,29.76,South,179,5.8,5.8,100,0.00,OVC,,0.00,WeatherDisplay:10.37,2013-02-10 06:55:00,
2013-02-10 01:00:00,60.4,60.4,29.76,SE,125,8.1,8.1,100,0.00,OVC,,0.00,WeatherDisplay:10.37,2013-02-10 07:00:00,
2013-02-10 01:05:00,60.6,60.6,29.73,SW,229,5.8,5.8,100,0.00,OVC,,0.00,WeatherDisplay:10.37,2013-02-10 07:05:00,
2013-02-10 01:10:00,60.6,60.6,29.73,ENE,77,3.5,3.5,100,0.00,OVC,,0.00,WeatherDisplay:10.37,2013-02-10 07:10:00,
2013-02-10 01:15:00,60.6,60.6,29.73,South,173,3.5,3.5,100,0.00,OVC,,0.00,WeatherDisplay:10.37,2013-02-10 07:15:00,
2013-02-10 01:20:00,60.8,60.8,29.73,SE,137,9.2,9.2,100,0.00,OVC,,0.00,WeatherDisplay:10.37,2013-02-10 07:20:00,
2013-02-10 01:25:00,60.8,60.8,29.73,SSE,164,3.5,3.6,100,0.00,OVC,,0.00,WeatherDisplay:10.37,2013-02-10 07:25:00,
2013-02-10 01:30:00,61.0,61.0,29.73,WSW,248,5.8,5.8,100,0.00,OVC,,0.00,WeatherDisplay:10.37,2013-02-10 07:30:00,
2013-02-10 01:35:00,61.0,61.0,29.70,SW,218,5.8,5.8,100,0.00,OVC,,0.00,WeatherDisplay:10.37,2013-02-10 07:35:00,
2013-02-10 01:40:00,61.2,61.2,29.70,NW,326,8.1,8.1,100,0.00,OVC,,0.00,WeatherDisplay:10.37,2013-02-10 07:40:00,
2013-02-10 01:45:00,61.3,61.3,29.70,WSW,243,4.6,4.6,100,0.00,OVC,,0.00,WeatherDisplay:10.37,2013-02-10 07:45:00,
2013-02-10 01:50:00,61.3,61.3,29.70,West,260,5.8,5.8,100,0.00,OVC,,0.00,WeatherDisplay:10.37,2013-02-10 07:50:00,
2013-02-10 01:55:00,61.5,61.5,29.70,WSW,251,8.1,8.1,100,0.00,OVC,,0.00,WeatherDisplay:10.37,2013-02-10 07:55:00,
2013-02-10 02:00:00,61.7,61.7,29.70,North,353,6.9,6.9,100,0.00,OVC,,0.00,WeatherDisplay:10.37,2013-02-10 08:00:00,
2013-02-10 02:05:00,61.7,61.7,29.70,SW,232,5.8,5.8,100,0.00,OVC,,0.00,WeatherDisplay:10.37,2013-02-10 08:05:00,
2013-02-10 02:10:00,61.9,61.9,29.70,WSW,252,8.1,8.1,100,0.00,OVC,,0.00,WeatherDisplay:10.37,2013-02-10 08:10:00,
2013-02-10 02:16:00,61.9,61.9,29.70,WSW,257,8.1,8.1,100,0.00,OVC,,0.00,WeatherDisplay:10.37,2013-02-10 08:16:00,
2013-02-10 02:21:00,62.1,62.1,29.70,WSW,250,5.8,5.8,100,0.00,OVC,,0.00,WeatherDisplay:10.37,2013-02-10 08:21:00,
2013-02-10 02:26:00,62.2,62.2,29.70,WSW,244,5.8,5.8,100,0.00,OVC,,0.00,WeatherDisplay:10.37,2013-02-10 08:26:00,
2013-02-10 02:31:00,62.2,62.2,29.70,WSW,249,9.2,9.2,100,0.00,OVC,,0.00,WeatherDisplay:10.37,2013-02-10 08:31:00,
2013-02-10 02:36:00,62.4,62.4,29.67,SW,232,12.7,12.7,100,0.00,OVC,,0.00,WeatherDisplay:10.37,2013-02-10 08:36:00,
2013-02-10 02:41:00,62.6,62.6,29.67,NW,312,8.1,8.1,100,0.00,OVC,,0.00,WeatherDisplay:10.37,2013-02-10 08:41:00,
2013-02-10 02:46:00,63.0,63.0,29.67,WSW,250,12.7,12.7,100,0.00,OVC,,0.00,WeatherDisplay:10.37,2013-02-10 08:46:00,
2013-02-10 02:51:00,63.0,63.0,29.67,West,260,11.5,11.5,100,0.00,OVC,,0.00,WeatherDisplay:10.37,2013-02-10 08:51:00,
2013-02-10 02:56:00,63.1,63.1,29.67,SW,233,10.4,10.5,100,0.00,OVC,,0.00,WeatherDisplay:10.37,2013-02-10 08:56:00,
2013-02-10 03:01:00,63.3,63.3,29.67,WSW,258,15.0,15.0,100,0.00,OVC,,0.00,WeatherDisplay:10.37,2013-02-10 09:01:00,
2013-02-10 03:06:00,63.5,63.5,29.70,SW,235,12.7,12.7,100,0.00,OVC,,0.00,WeatherDisplay:10.37,2013-02-10 09:06:00,
2013-02-10 03:11:00,63.5,63.5,29.70,West,269,9.2,9.2,100,0.00,OVC,,0.00,WeatherDisplay:10.37,2013-02-10 09:11:00,
2013-02-10 03:16:00,63.7,63.7,29.70,West,267,12.7,12.7,100,0.00,OVC,,0.00,WeatherDisplay:10.37,2013-02-10 09:16:00,
2013-02-10 03:21:00,63.9,63.9,29.70,West,260,10.4,10.4,100,0.00,OVC,,0.00,WeatherDisplay:10.37,2013-02-10 09:21:00,
2013-02-10 03:26:00,63.9,63.9,29.70,West,263,10.4,10.4,100,0.00,OVC,,0.00,WeatherDisplay:10.37,2013-02-10 09:26:00,
2013-02-10 03:31:00,64.0,64.0,29.70,WSW,258,10.4,10.4,100,0.00,OVC,,0.00,WeatherDisplay:10.37,2013-02-10 09:31:00,
2013-02-10 03:36:00,63.9,63.9,29.70,SW,224,10.4,10.4,100,0.02,RA,,0.02,WeatherDisplay:10.37,2013-02-10 09:36:00,
2013-02-10 03:41:00,63.9,63.9,29.70,South,183,11.5,11.5,100,0.03,RA,,0.03,WeatherDisplay:10.37,2013-02-10 09:41:00,
2013-02-10 03:46:00,59.4,59.4,29.70,WSW,238,8.1,8.1,100,0.08,RA,,0.10,WeatherDisplay:10.37,2013-02-10 09:46:00,
2013-02-10 03:51:00,58.5,58.5,29.82,SW,230,11.5,11.5,100,0.31,RA,,0.31,WeatherDisplay:10.37,2013-02-10 09:51:00,
2013-02-10 03:56:00,57.6,57.6,29.82,WSW,257,15.0,15.0,100,0.56,RA,,0.56,WeatherDisplay:10.37,2013-02-10 09:56:00,
2013-02-10 04:01:00,57.0,57.0,29.82,West,268,8.3,8.3,100,0.64,RA,,0.64,WeatherDisplay:10.37,2013-02-10 10:01:00,
2013-02-10 04:06:00,56.8,56.8,29.79,West,264,5.8,5.8,100,0.66,RA,,0.66,WeatherDisplay:10.37,2013-02-10 10:06:00,
2013-02-10 04:11:00,56.8,56.8,29.79,SW,222,4.0,4.0,100,0.67,RA,,0.68,WeatherDisplay:10.37,2013-02-10 10:11:00,
2013-02-10 04:16:00,57.4,57.4,29.79,SW,226,5.8,5.8,100,0.69,RA,,0.69,WeatherDisplay:10.37,2013-02-10 10:16:00,
2013-02-10 04:21:00,57.7,57.7,29.76,SW,224,3.5,3.5,100,0.70,RA,,0.70,WeatherDisplay:10.37,2013-02-10 10:21:00,
2013-02-10 04:26:00,57.9,57.9,29.76,WSW,251,3.5,3.5,100,0.71,RA,,0.72,WeatherDisplay:10.37,2013-02-10 10:26:00,
2013-02-10 04:31:00,57.9,57.9,29.76,West,263,5.8,5.8,100,0.73,RA,,0.73,WeatherDisplay:10.37,2013-02-10 10:31:00,
2013-02-10 04:36:00,58.1,58.1,29.76,West,260,3.5,0.0,100,0.74,RA,,0.76,WeatherDisplay:10.37,2013-02-10 10:36:00,
2013-02-10 04:41:00,58.3,58.3,29.76,WSW,257,3.6,3.6,100,0.75,RA,,0.78,WeatherDisplay:10.37,2013-02-10 10:41:00,
2013-02-10 04:46:00,58.5,58.5,29.76,WSW,247,6.9,6.9,100,0.72,RA,,0.80,WeatherDisplay:10.37,2013-02-10 10:46:00,
2013-02-10 04:51:00,58.5,58.5,29.73,WSW,253,3.5,0.0,100,0.51,RA,,0.83,WeatherDisplay:10.37,2013-02-10 10:51:00,
2013-02-10 04:56:00,58.1,58.1,29.73,SW,234,6.9,6.9,100,0.28,RA,,0.84,WeatherDisplay:10.37,2013-02-10 10:56:00,
2013-02-10 05:01:00,57.9,57.9,29.73,West,263,5.8,5.8,100,0.20,RA,,0.84,WeatherDisplay:10.37,2013-02-10 11:01:00,
2013-02-10 05:06:00,57.2,57.2,29.76,WSW,239,3.6,3.6,100,0.18,OVC,,0.84,WeatherDisplay:10.37,2013-02-10 11:06:00,
2013-02-10 05:11:00,56.8,56.8,29.76,SSW,213,6.9,6.9,100,0.17,OVC,,0.84,WeatherDisplay:10.37,2013-02-10 11:11:00,
2013-02-10 05:16:00,56.7,56.7,29.76,WSW,257,8.1,8.1,100,0.16,RA,,0.85,WeatherDisplay:10.37,2013-02-10 11:16:00,
2013-02-10 05:21:00,56.3,56.3,29.79,WSW,240,3.5,3.5,100,0.16,RA,,0.86,WeatherDisplay:10.37,2013-02-10 11:21:00,
2013-02-10 05:26:00,56.1,56.1,29.79,SSW,204,3.5,3.5,100,0.15,RA,,0.86,WeatherDisplay:10.37,2013-02-10 11:26:00,
2013-02-10 05:31:00,56.1,56.1,29.79,SW,234,2.3,0.0,100,0.13,-RA,,0.86,WeatherDisplay:10.37,2013-02-10 11:31:00,
2013-02-10 05:36:00,55.9,55.9,29.76,SW,234,2.3,0.0,100,0.10,-RA,,0.86,WeatherDisplay:10.37,2013-02-10 11:36:00,
2013-02-10 05:41:00,55.8,55.8,29.76,WSW,241,3.5,3.5,100,0.08,-RA,,0.86,WeatherDisplay:10.37,2013-02-10 11:41:00,
2013-02-10 05:46:00,55.8,55.8,29.76,WSW,241,2.3,0.0,100,0.06,OVC,,0.86,WeatherDisplay:10.37,2013-02-10 11:46:00,
2013-02-10 05:51:00,55.8,55.8,29.79,WSW,239,2.3,0.0,100,0.03,OVC,,0.86,WeatherDisplay:10.37,2013-02-10 11:51:00,
2013-02-10 05:56:00,55.8,55.8,29.79,WSW,241,3.5,0.0,100,0.02,OVC,,0.86,WeatherDisplay:10.37,2013-02-10 11:56:00,
2013-02-10 06:01:00,55.8,55.8,29.79,WSW,243,0.0,0.0,100,0.02,BKN,,0.86,WeatherDisplay:10.37,2013-02-10 12:01:00,
2013-02-10 06:06:00,55.8,55.8,29.79,WSW,248,3.5,3.5,100,0.02,BKN,,0.86,WeatherDisplay:10.37,2013-02-10 12:06:00,
2013-02-10 06:11:00,55.8,55.8,29.79,WSW,241,2.3,0.0,100,0.02,BKN,,0.86,WeatherDisplay:10.37,2013-02-10 12:11:00,
2013-02-10 06:16:00,55.8,55.8,29.79,WSW,244,3.5,3.5,100,0.01,BKN,,0.86,WeatherDisplay:10.37,2013-02-10 12:16:00,
2013-02-10 06:21:00,55.6,55.6,29.79,WSW,240,3.5,0.0,100,0.00,BKN,,0.86,WeatherDisplay:10.37,2013-02-10 12:21:00,
2013-02-10 06:26:00,55.4,55.4,29.79,SW,236,2.3,0.0,100,0.00,BKN,,0.86,WeatherDisplay:10.37,2013-02-10 12:26:00,
2013-02-10 06:31:00,55.0,55.0,29.79,SW,229,3.5,3.5,100,0.00,CLR,,0.86,WeatherDisplay:10.37,2013-02-10 12:31:00,
2013-02-10 06:36:00,54.3,54.3,29.79,SSW,193,5.8,5.8,100,0.00,CLR,,0.86,WeatherDisplay:10.37,2013-02-10 12:36:00,
2013-02-10 06:41:00,53.6,53.6,29.79,SSW,193,3.5,3.5,100,0.00,CLR,,0.86,WeatherDisplay:10.37,2013-02-10 12:41:00,
2013-02-10 06:46:00,53.1,53.1,29.79,SW,215,3.5,3.5,100,0.00,CLR,,0.86,WeatherDisplay:10.37,2013-02-10 12:46:00,
2013-02-10 06:51:00,53.1,53.1,29.82,SSW,205,2.3,0.0,100,0.00,CLR,,0.86,WeatherDisplay:10.37,2013-02-10 12:51:00,
2013-02-10 06:56:00,53.1,53.1,29.82,SSW,205,0.0,0.0,100,0.00,CLR,,0.86,WeatherDisplay:10.37,2013-02-10 12:56:00,
2013-02-10 07:01:00,52.7,52.7,29.82,SSW,205,0.0,0.0,100,0.00,CLR,,0.86,WeatherDisplay:10.37,2013-02-10 13:01:00,
2013-02-10 07:06:00,52.7,52.7,29.82,SSW,205,0.0,0.0,100,0.00,CLR,,0.86,WeatherDisplay:10.37,2013-02-10 13:06:00,
2013-02-10 07:11:00,52.3,52.3,29.82,SSW,205,2.7,0.0,100,0.00,CLR,,0.86,WeatherDisplay:10.37,2013-02-10 13:11:00,
2013-02-10 07:16:00,52.0,52.0,29.82,SSW,204,2.3,0.0,100,0.00,CLR,,0.86,WeatherDisplay:10.37,2013-02-10 13:16:00,
2013-02-10 07:21:00,51.6,51.6,29.82,South,177,2.3,0.0,100,0.00,CLR,,0.86,WeatherDisplay:10.37,2013-02-10 13:21:00,
2013-02-10 07:26:00,51.4,51.4,29.82,South,177,0.0,0.0,100,0.00,CLR,,0.86,WeatherDisplay:10.37,2013-02-10 13:26:00,
2013-02-10 07:31:00,51.1,51.1,29.82,South,178,3.5,3.5,100,0.00,CLR,,0.86,WeatherDisplay:10.37,2013-02-10 13:31:00,
2013-02-10 07:36:00,50.9,50.9,29.82,South,178,3.5,0.0,100,0.00,CLR,,0.86,WeatherDisplay:10.37,2013-02-10 13:36:00,
2013-02-10 07:41:00,51.1,51.1,29.82,SW,236,2.3,0.0,100,0.00,CLR,,0.86,WeatherDisplay:10.37,2013-02-10 13:41:00,
2013-02-10 07:46:00,50.9,50.9,29.82,SW,236,0.0,0.0,100,0.00,CLR,,0.86,WeatherDisplay:10.37,2013-02-10 13:46:00,
2013-02-10 07:52:00,50.9,50.9,29.85,SW,236,2.7,0.0,100,0.00,CLR,,0.86,WeatherDisplay:10.37,2013-02-10 13:52:00,
2013-02-10 07:57:00,51.1,51.1,29.85,SW,217,3.5,3.5,100,0.00,CLR,,0.86,WeatherDisplay:10.37,2013-02-10 13:57:00,
2013-02-10 08:02:00,51.4,51.4,29.85,SW,222,3.5,0.0,100,0.00,CLR,,0.86,WeatherDisplay:10.37,2013-02-10 14:02:00,
2013-02-10 08:07:00,51.6,51.6,29.85,SW,214,3.5,0.0,100,0.00,CLR,,0.86,WeatherDisplay:10.37,2013-02-10 14:07:00,
2013-02-10 08:12:00,52.0,52.0,29.85,SW,214,3.5,0.0,100,0.00,CLR,,0.86,WeatherDisplay:10.37,2013-02-10 14:12:00,
2013-02-10 08:17:00,52.0,52.0,29.85,SW,226,0.0,0.0,100,0.00,CLR,,0.86,WeatherDisplay:10.37,2013-02-10 14:17:00,
2013-02-10 08:22:00,51.6,51.6,29.85,SW,223,0.0,0.0,100,0.00,CLR,,0.86,WeatherDisplay:10.37,2013-02-10 14:22:00,
2013-02-10 08:27:00,51.8,51.8,29.85,SW,222,0.0,0.0,100,0.00,CLR,,0.86,WeatherDisplay:10.37,2013-02-10 14:27:00,
2013-02-10 08:32:00,51.8,51.8,29.85,SW,221,2.3,0.0,100,0.00,SCT,,0.86,WeatherDisplay:10.37,2013-02-10 14:32:00,
2013-02-10 08:37:00,52.2,52.2,29.85,SSW,202,3.5,3.5,100,0.00,SCT,,0.86,WeatherDisplay:10.37,2013-02-10 14:37:00,
2013-02-10 08:42:00,52.5,52.5,29.85,SSW,205,2.3,0.0,100,0.00,SCT,,0.86,WeatherDisplay:10.37,2013-02-10 14:42:00,
2013-02-10 08:47:00,53.1,53.1,29.85,SW,220,3.6,3.6,100,0.00,SCT,,0.86,WeatherDisplay:10.37,2013-02-10 14:47:00,
2013-02-10 08:52:00,53.2,53.2,29.88,SSW,210,5.8,5.8,100,0.00,SCT,,0.86,WeatherDisplay:10.37,2013-02-10 14:52:00,
2013-02-10 08:57:00,53.4,53.4,29.88,WSW,239,3.5,0.0,100,0.00,SCT,,0.86,WeatherDisplay:10.37,2013-02-10 14:57:00,
2013-02-10 09:02:00,53.4,53.4,29.88,SW,228,3.5,3.5,100,0.00,SCT,,0.86,WeatherDisplay:10.37,2013-02-10 15:02:00,
2013-02-10 09:07:00,53.6,53.6,29.88,SW,216,4.6,4.6,100,0.00,SCT,,0.86,WeatherDisplay:10.37,2013-02-10 15:07:00,
2013-02-10 09:12:00,54.3,54.3,29.88,SW,233,3.5,4.0,100,0.00,SCT,,0.86,WeatherDisplay:10.37,2013-02-10 15:12:00,
2013-02-10 09:17:00,54.9,54.9,29.88,SW,235,5.8,5.8,100,0.00,CLR,,0.86,WeatherDisplay:10.37,2013-02-10 15:17:00,
2013-02-10 09:22:00,55.8,55.8,29.88,SSW,196,5.8,5.8,100,0.00,CLR,,0.86,WeatherDisplay:10.37,2013-02-10 15:22:00,
2013-02-10 09:27:00,56.3,56.3,29.88,SW,230,5.8,5.8,100,0.00,CLR,,0.86,WeatherDisplay:10.37,2013-02-10 15:27:00,
2013-02-10 09:32:00,56.3,56.3,29.88,SSW,198,5.8,5.8,100,0.00,CLR,,0.86,WeatherDisplay:10.37,2013-02-10 15:32:00,
2013-02-10 09:37:00,56.3,56.3,29.88,SW,225,8.0,8.0,100,0.00,CLR,,0.86,WeatherDisplay:10.37,2013-02-10 15:37:00,
2013-02-10 09:42:00,56.3,56.3,29.88,SSW,208,3.6,3.6,100,0.00,CLR,,0.86,WeatherDisplay:10.37,2013-02-10 15:42:00,
2013-02-10 09:47:00,56.1,56.1,29.88,SSW,203,3.5,3.5,100,0.00,CLR,,0.86,WeatherDisplay:10.37,2013-02-10 15:47:00,
2013-02-10 09:52:00,56.3,56.3,29.88,SW,223,5.8,5.8,100,0.00,CLR,,0.86,WeatherDisplay:10.37,2013-02-10 15:52:00,
2013-02-10 09:57:00,56.5,56.5,29.88,SSW,213,4.6,4.6,100,0.00,CLR,,0.86,WeatherDisplay:10.37,2013-02-10 15:57:00,
2013-02-10 10:02:00,56.8,56.8,29.88,WSW,240,4.0,4.0,100,0.00,CLR,,0.86,WeatherDisplay:10.37,2013-02-10 16:02:00,
2013-02-10 10:07:00,57.2,57.2,29.91,SW,231,3.5,3.5,100,0.00,CLR,,0.86,WeatherDisplay:10.37,2013-02-10 16:07:00,
2013-02-10 10:12:00,57.6,57.6,29.91,SSW,212,3.5,3.6,100,0.00,CLR,,0.86,WeatherDisplay:10.37,2013-02-10 16:12:00,
2013-02-10 10:17:00,57.7,57.7,29.91,South,184,2.3,0.0,100,0.00,CLR,,0.86,WeatherDisplay:10.37,2013-02-10 16:17:00,
2013-02-10 10:22:00,57.9,57.9,29.91,SW,219,3.5,3.5,100,0.00,CLR,,0.86,WeatherDisplay:10.37,2013-02-10 16:22:00,
2013-02-10 10:28:00,58.1,58.1,29.91,WSW,248,4.6,0.0,100,0.00,CLR,,0.86,WeatherDisplay:10.37,2013-02-10 16:28:00,
2013-02-10 10:33:00,58.3,58.3,29.91,SSW,208,3.5,3.6,100,0.00,CLR,,0.86,WeatherDisplay:10.37,2013-02-10 16:33:00,
2013-02-10 10:38:00,58.5,58.5,29.91,SSW,205,4.6,4.6,100,0.00,CLR,,0.86,WeatherDisplay:10.37,2013-02-10 16:38:00,
2013-02-10 10:43:00,58.3,58.3,29.91,WSW,237,6.9,6.9,100,0.00,CLR,,0.86,WeatherDisplay:10.37,2013-02-10 16:43:00,
2013-02-10 10:48:00,58.8,58.8,29.91,SW,236,4.0,4.0,100,0.00,CLR,,0.86,WeatherDisplay:10.37,2013-02-10 16:48:00,
2013-02-10 10:53:00,59.0,59.0,29.88,SW,227,3.5,3.5,100,0.00,CLR,,0.86,WeatherDisplay:10.37,2013-02-10 16:53:00,
2013-02-10 10:58:00,59.2,59.2,29.88,SW,227,3.5,3.6,100,0.00,CLR,,0.86,WeatherDisplay:10.37,2013-02-10 16:58:00,
2013-02-10 11:03:00,59.4,59.4,29.88,SSW,209,3.6,3.6,100,0.00,CLR,,0.86,WeatherDisplay:10.37,2013-02-10 17:03:00,
2013-02-10 11:08:00,59.7,59.7,29.91,SSW,196,3.5,3.5,100,0.00,CLR,,0.86,WeatherDisplay:10.37,2013-02-10 17:08:00,
2013-02-10 11:13:00,60.1,60.1,29.91,West,279,5.8,5.8,100,0.00,CLR,,0.86,WeatherDisplay:10.37,2013-02-10 17:13:00,
2013-02-10 11:18:00,60.1,60.1,29.91,WSW,240,5.8,5.8,100,0.00,CLR,,0.86,WeatherDisplay:10.37,2013-02-10 17:18:00,
2013-02-10 11:23:00,59.7,59.7,29.91,SW,226,5.4,0.0,100,0.00,CLR,,0.86,WeatherDisplay:10.37,2013-02-10 17:23:00,
2013-02-10 11:28:00,59.7,59.7,29.91,WSW,249,3.6,3.6,100,0.00,CLR,,0.86,WeatherDisplay:10.37,2013-02-10 17:28:00,
2013-02-10 11:33:00,59.7,59.7,29.91,SSW,193,5.8,5.8,100,0.00,CLR,,0.86,WeatherDisplay:10.37,2013-02-10 17:33:00,
2013-02-10 11:38:00,59.9,59.9,29.91,SW,235,3.5,3.5,100,0.00,CLR,,0.86,WeatherDisplay:10.37,2013-02-10 17:38:00,
2013-02-10 11:43:00,60.1,60.1,29.91,SSW,207,5.8,5.8,100,0.00,CLR,,0.86,WeatherDisplay:10.37,2013-02-10 17:43:00,
2013-02-10 11:48:00,60.1,60.1,29.91,SW,230,6.9,6.9,100,0.00,CLR,,0.86,WeatherDisplay:10.37,2013-02-10 17:48:00,
2013-02-10 11:53:00,60.4,60.4,29.88,SW,230,4.0,4.0,100,0.00,CLR,,0.86,WeatherDisplay:10.37,2013-02-10 17:53:00,
2013-02-10 11:58:00,60.8,60.8,29.88,SW,225,4.6,4.6,100,0.00,CLR,,0.86,WeatherDisplay:10.37,2013-02-10 17:58:00,
2013-02-10 12:03:00,61.0,61.0,29.88,WSW,252,5.8,5.8,100,0.00,CLR,,0.86,WeatherDisplay:10.37,2013-02-10 18:03:00,
2013-02-10 12:08:00,61.3,61.3,29.88,SSW,202,5.8,5.8,100,0.00,CLR,,0.86,WeatherDisplay:10.37,2013-02-10 18:08:00,
2013-02-10 12:13:00,61.2,61.2,29.88,SW,221,4.6,4.6,100,0.00,CLR,,0.86,WeatherDisplay:10.37,2013-02-10 18:13:00,
2013-02-10 12:18:00,61.3,61.3,29.88,SSW,210,4.0,4.0,100,0.00,CLR,,0.86,WeatherDisplay:10.37,2013-02-10 18:18:00,
2013-02-10 12:23:00,61.3,61.3,29.88,SW,224,5.8,5.8,100,0.00,CLR,,0.86,WeatherDisplay:10.37,2013-02-10 18:23:00,
2013-02-10 12:28:00,61.3,61.3,29.88,WSW,242,4.0,4.0,100,0.00,CLR,,0.86,WeatherDisplay:10.37,2013-02-10 18:28:00,
2013-02-10 12:33:00,61.7,61.7,29.88,West,259,4.6,4.6,100,0.00,CLR,,0.86,WeatherDisplay:10.37,2013-02-10 18:33:00,
2013-02-10 12:38:00,61.9,60.7,29.88,SW,236,5.8,5.8,96,0.00,CLR,,0.86,WeatherDisplay:10.37,2013-02-10 18:38:00,
2013-02-10 12:43:00,61.7,60.8,29.88,South,181,3.5,4.0,97,0.00,CLR,,0.86,WeatherDisplay:10.37,2013-02-10 18:43:00,
2013-02-10 12:48:00,61.9,61.0,29.88,SSW,195,3.5,3.5,97,0.00,CLR,,0.86,WeatherDisplay:10.37,2013-02-10 18:48:00,
2013-02-10 12:53:00,62.2,62.2,29.88,South,191,4.6,4.6,100,0.00,CLR,,0.86,WeatherDisplay:10.37,2013-02-10 18:53:00,
2013-02-10 12:58:00,62.1,60.3,29.88,SSW,210,5.8,5.8,94,0.00,CLR,,0.86,WeatherDisplay:10.37,2013-02-10 18:58:00,
2013-02-10 13:03:00,62.1,60.6,29.88,South,185,3.6,0.0,95,0.00,CLR,,0.86,WeatherDisplay:10.37,2013-02-10 19:03:00,
2013-02-10 13:08:00,62.2,60.2,29.88,SSE,151,4.0,4.0,93,0.00,CLR,,0.86,WeatherDisplay:10.37,2013-02-10 19:08:00,
2013-02-10 13:13:00,62.2,60.8,29.88,SSW,213,3.5,3.5,95,0.00,CLR,,0.86,WeatherDisplay:10.37,2013-02-10 19:13:00,
2013-02-10 13:18:00,62.6,60.5,29.88,SSW,206,5.8,5.8,93,0.00,CLR,,0.86,WeatherDisplay:10.37,2013-02-10 19:18:00,
2013-02-10 13:23:00,62.8,60.7,29.88,WSW,244,3.5,3.5,93,0.00,CLR,,0.86,WeatherDisplay:10.37,2013-02-10 19:23:00,
2013-02-10 13:28:00,62.8,61.6,29.88,WSW,254,5.8,5.8,96,0.00,CLR,,0.86,WeatherDisplay:10.37,2013-02-10 19:28:00,
2013-02-10 13:33:00,62.8,61.6,29.88,WSW,249,3.5,3.5,96,0.00,CLR,,0.86,WeatherDisplay:10.37,2013-02-10 19:33:00,
2013-02-10 13:38:00,63.1,61.7,29.88,WSW,252,5.8,5.8,95,0.00,CLR,,0.86,WeatherDisplay:10.37,2013-02-10 19:38:00,
2013-02-10 13:43:00,63.7,62.2,29.88,SW,226,3.1,3.1,95,0.00,CLR,,0.86,WeatherDisplay:10.37,2013-02-10 19:43:00,
2013-02-10 13:48:00,64.2,62.8,29.88,WSW,246,5.8,5.8,95,0.00,CLR,,0.86,WeatherDisplay:10.37,2013-02-10 19:48:00,
2013-02-10 13:53:00,64.4,61.1,29.85,SW,231,3.5,3.5,89,0.00,CLR,,0.86,WeatherDisplay:10.37,2013-02-10 19:53:00,
2013-02-10 13:58:00,64.4,60.4,29.85,SW,227,2.3,0.0,87,0.00,CLR,,0.86,WeatherDisplay:10.37,2013-02-10 19:58:00,
2013-02-10 14:03:00,64.2,58.3,29.85,SSW,192,2.3,0.0,81,0.00,CLR,,0.86,WeatherDisplay:10.37,2013-02-10 20:03:00,
2013-02-10 14:08:00,64.8,57.0,29.85,WSW,248,5.8,5.8,76,0.00,CLR,,0.86,WeatherDisplay:10.37,2013-02-10 20:08:00,
2013-02-10 14:13:00,65.1,52.2,29.85,SW,229,3.5,3.5,63,0.00,CLR,,0.86,WeatherDisplay:10.37,2013-02-10 20:13:00,
2013-02-10 14:18:00,65.5,45.8,29.85,WSW,258,3.5,3.5,49,0.00,CLR,,0.86,WeatherDisplay:10.37,2013-02-10 20:18:00,
2013-02-10 14:23:00,65.7,43.7,29.85,SSW,196,5.8,0.0,45,0.00,CLR,,0.86,WeatherDisplay:10.37,2013-02-10 20:23:00,
2013-02-10 14:28:00,65.7,41.3,29.85,WSW,239,3.5,3.6,41,0.00,CLR,,0.86,WeatherDisplay:10.37,2013-02-10 20:28:00,
2013-02-10 14:33:00,65.5,39.9,29.85,SW,224,3.5,3.5,39,0.00,CLR,,0.86,WeatherDisplay:10.37,2013-02-10 20:33:00,
2013-02-10 14:39:00,65.1,39.5,29.88,West,260,5.8,5.8,39,0.00,CLR,,0.86,WeatherDisplay:10.37,2013-02-10 20:39:00,
2013-02-10 14:44:00,65.1,38.2,29.88,SW,225,3.5,0.0,37,0.00,CLR,,0.86,WeatherDisplay:10.37,2013-02-10 20:44:00,
2013-02-10 14:49:00,64.9,35.9,29.88,WSW,238,3.5,3.5,34,0.00,CLR,,0.86,WeatherDisplay:10.37,2013-02-10 20:49:00,
2013-02-10 14:54:00,64.8,36.5,29.88,SSW,199,3.5,3.5,35,0.00,CLR,,0.86,WeatherDisplay:10.37,2013-02-10 20:54:00,
2013-02-10 14:59:00,64.9,38.0,29.88,WSW,253,2.3,0.0,37,0.00,CLR,,0.86,WeatherDisplay:10.37,2013-02-10 20:59:00,
2013-02-10 15:04:00,64.8,35.7,29.88,SSW,205,3.5,0.0,34,0.00,CLR,,0.86,WeatherDisplay:10.37,2013-02-10 21:04:00,
2013-02-10 15:09:00,64.6,36.3,29.88,SW,220,2.3,0.0,35,0.00,CLR,,0.86,WeatherDisplay:10.37,2013-02-10 21:09:00,
2013-02-10 15:14:00,64.8,36.5,29.88,SW,217,3.5,3.5,35,0.00,CLR,,0.86,WeatherDisplay:10.37,2013-02-10 21:14:00,
2013-02-10 15:19:00,64.9,35.9,29.88,SW,218,2.7,0.0,34,0.00,CLR,,0.86,WeatherDisplay:10.37,2013-02-10 21:19:00,
2013-02-10 15:24:00,64.9,35.1,29.88,WSW,240,3.5,3.5,33,0.00,CLR,,0.86,WeatherDisplay:10.37,2013-02-10 21:24:00,
2013-02-10 15:29:00,64.9,35.9,29.88,SSW,213,3.5,0.0,34,0.00,CLR,,0.86,WeatherDisplay:10.37,2013-02-10 21:29:00,
2013-02-10 15:34:00,65.1,35.3,29.88,WSW,243,3.5,3.5,33,0.00,CLR,,0.86,WeatherDisplay:10.37,2013-02-10 21:34:00,
2013-02-10 15:39:00,65.3,35.4,29.88,WSW,239,4.6,4.6,33,0.00,CLR,,0.86,WeatherDisplay:10.37,2013-02-10 21:39:00,
2013-02-10 15:44:00,65.3,31.3,29.88,WSW,238,2.3,0.0,28,0.00,CLR,,0.86,WeatherDisplay:10.37,2013-02-10 21:44:00,
2013-02-10 15:49:00,65.1,35.3,29.88,WSW,238,2.3,0.0,33,0.00,CLR,,0.86,WeatherDisplay:10.37,2013-02-10 21:49:00,
2013-02-10 15:54:00,65.5,34.8,29.88,WSW,247,2.3,0.0,32,0.00,CLR,,0.86,WeatherDisplay:10.37,2013-02-10 21:54:00,
2013-02-10 15:59:00,65.3,34.7,29.88,SW,234,0.0,0.0,32,0.00,CLR,,0.86,WeatherDisplay:10.37,2013-02-10 21:59:00,
2013-02-10 16:04:00,65.1,31.2,29.88,SW,231,3.5,3.5,28,0.00,CLR,,0.86,WeatherDisplay:10.37,2013-02-10 22:04:00,
2013-02-10 16:09:00,64.9,32.7,29.88,WSW,243,3.5,0.0,30,0.00,CLR,,0.86,WeatherDisplay:10.37,2013-02-10 22:09:00,
2013-02-10 16:14:00,64.8,31.7,29.88,SW,218,2.3,0.0,29,0.00,CLR,,0.86,WeatherDisplay:10.37,2013-02-10 22:14:00,
2013-02-10 16:19:00,64.4,28.7,29.88,South,173,3.5,0.0,26,0.00,CLR,,0.86,WeatherDisplay:10.37,2013-02-10 22:19:00,
2013-02-10 16:24:00,64.2,30.4,29.88,South,173,0.0,0.0,28,0.00,CLR,,0.86,WeatherDisplay:10.37,2013-02-10 22:24:00,
2013-02-10 16:29:00,64.0,30.2,29.88,South,174,3.5,0.0,28,0.00,CLR,,0.86,WeatherDisplay:10.37,2013-02-10 22:29:00,
2013-02-10 16:34:00,63.9,29.2,29.88,SSW,195,0.0,0.0,27,0.00,CLR,,0.86,WeatherDisplay:10.37,2013-02-10 22:34:00,
2013-02-10 16:39:00,63.5,29.8,29.88,SSW,197,0.0,0.0,28,0.00,CLR,,0.86,WeatherDisplay:10.37,2013-02-10 22:39:00,
2013-02-10 16:44:00,63.3,30.5,29.88,SSW,197,0.0,0.0,29,0.00,CLR,,0.86,WeatherDisplay:10.37,2013-02-10 22:44:00,
2013-02-10 16:49:00,63.3,29.6,29.88,SSW,197,0.0,0.0,28,0.00,CLR,,0.86,WeatherDisplay:10.37,2013-02-10 22:49:00,
2013-02-10 16:54:00,63.1,29.5,29.91,SSW,197,3.5,3.5,28,0.00,CLR,,0.86,WeatherDisplay:10.37,2013-02-10 22:54:00,
2013-02-10 16:59:00,63.0,31.0,29.91,SSW,197,0.0,0.0,30,0.00,CLR,,0.86,WeatherDisplay:10.37,2013-02-10 22:59:00,
2013-02-10 17:04:00,63.0,31.0,29.91,SSW,197,0.0,0.0,30,0.00,CLR,,0.86,WeatherDisplay:10.37,2013-02-10 23:04:00,
2013-02-10 17:09:00,62.8,31.7,29.91,SSW,197,0.0,0.0,31,0.00,CLR,,0.86,WeatherDisplay:10.37,2013-02-10 23:09:00,
2013-02-10 17:14:00,62.4,31.4,29.91,SSW,197,0.0,0.0,31,0.00,CLR,,0.86,WeatherDisplay:10.37,2013-02-10 23:14:00,
2013-02-10 17:19:00,62.2,31.2,29.91,SSW,197,3.5,3.5,31,0.00,CLR,,0.86,WeatherDisplay:10.37,2013-02-10 23:19:00,
2013-02-10 17:24:00,61.9,33.2,29.91,SSW,197,0.0,0.0,34,0.00,CLR,,0.86,WeatherDisplay:10.37,2013-02-10 23:24:00,
2013-02-10 17:29:00,61.7,33.0,29.91,SSW,197,0.0,0.0,34,0.00,CLR,,0.86,WeatherDisplay:10.37,2013-02-10 23:29:00,
2013-02-10 17:34:00,61.3,32.7,29.91,SSW,197,0.0,0.0,34,0.00,CLR,,0.86,WeatherDisplay:10.37,2013-02-10 23:34:00,
2013-02-10 17:39:00,60.8,33.0,29.91,SSW,197,0.0,0.0,35,0.00,CLR,,0.86,WeatherDisplay:10.37,2013-02-10 23:39:00,
2013-02-10 17:44:00,60.4,33.3,29.91,SSW,197,0.0,0.0,36,0.00,CLR,,0.86,WeatherDisplay:10.37,2013-02-10 23:44:00,
2013-02-10 17:49:00,60.1,33.7,29.91,SSW,197,0.0,0.0,37,0.00,CLR,,0.86,WeatherDisplay:10.37,2013-02-10 23:49:00,
2013-02-10 17:54:00,59.5,33.2,29.94,SSW,197,0.0,0.0,37,0.00,CLR,,0.86,WeatherDisplay:10.37,2013-02-10 23:54:00,
2013-02-10 17:59:00,59.4,32.4,29.94,SSW,197,0.0,0.0,36,0.00,CLR,,0.86,WeatherDisplay:10.37,2013-02-10 23:59:00,
2013-02-10 18:04:00,59.0,32.1,29.94,SSW,197,0.0,0.0,36,0.00,CLR,,0.86,WeatherDisplay:10.37,2013-02-11 00:04:00,
2013-02-10 18:10:00,58.5,31.6,29.91,SSW,197,0.0,0.0,36,0.00,CLR,,0.86,WeatherDisplay:10.37,2013-02-11 00:10:00,
2013-02-10 18:15:00,57.9,31.1,29.91,SSW,197,0.0,0.0,36,0.00,CLR,,0.86,WeatherDisplay:10.37,2013-02-11 00:15:00,
2013-02-10 18:20:00,57.4,30.6,29.91,SSW,197,0.0,0.0,36,0.00,CLR,,0.86,WeatherDisplay:10.37,2013-02-11 00:20:00,
2013-02-10 18:25:00,57.2,31.1,29.91,SSW,197,0.0,0.0,37,0.00,CLR,,0.86,WeatherDisplay:10.37,2013-02-11 00:25:00,
2013-02-10 18:30:00,56.8,30.8,29.91,SSW,197,0.0,0.0,37,0.00,CLR,,0.86,WeatherDisplay:10.37,2013-02-11 00:30:00,
2013-02-10 18:35:00,56.5,31.8,29.91,SSW,197,0.0,0.0,39,0.00,CLR,,0.86,WeatherDisplay:10.37,2013-02-11 00:35:00,
2013-02-10 18:40:00,56.5,31.8,29.94,SSW,197,0.0,0.0,39,0.00,CLR,,0.86,WeatherDisplay:10.37,2013-02-11 00:40:00,
2013-02-10 18:45:00,55.9,31.9,29.94,SSW,197,0.0,0.0,40,0.00,CLR,,0.86,WeatherDisplay:10.37,2013-02-11 00:45:00,
2013-02-10 18:50:00,56.1,31.5,29.94,SSW,197,0.0,0.0,39,0.00,CLR,,0.86,WeatherDisplay:10.37,2013-02-11 00:50:00,
2013-02-10 18:55:00,55.8,31.2,29.94,SSW,197,0.0,0.0,39,0.00,CLR,,0.86,WeatherDisplay:10.37,2013-02-11 00:55:00,
2013-02-10 19:00:00,55.3,30.7,29.94,SSW,197,0.0,0.0,39,0.00,CLR,,0.86,WeatherDisplay:10.37,2013-02-11 01:00:00,
2013-02-10 19:05:00,54.5,30.6,29.94,SSW,197,0.0,0.0,40,0.00,CLR,,0.86,WeatherDisplay:10.37,2013-02-11 01:05:00,
2013-02-10 19:10:00,54.3,30.5,29.94,SSW,197,0.0,0.0,40,0.00,CLR,,0.86,WeatherDisplay:10.37,2013-02-11 01:10:00,
2013-02-10 19:15:00,54.3,30.5,29.94,SSW,197,0.0,0.0,40,0.00,CLR,,0.86,WeatherDisplay:10.37,2013-02-11 01:15:00,
2013-02-10 19:20:00,53.8,30.6,29.94,SSW,197,0.0,0.0,41,0.00,CLR,,0.86,WeatherDisplay:10.37,2013-02-11 01:20:00,
2013-02-10 19:25:00,53.6,31.6,29.94,SSW,197,0.0,0.0,43,0.00,CLR,,0.86,WeatherDisplay:10.37,2013-02-11 01:25:00,
2013-02-10 19:30:00,53.6,32.8,29.94,SSW,197,0.0,0.0,45,0.00,CLR,,0.86,WeatherDisplay:10.37,2013-02-11 01:30:00,
2013-02-10 19:35:00,53.2,33.0,29.97,SSW,197,0.0,0.0,46,0.00,CLR,,0.86,WeatherDisplay:10.37,2013-02-11 01:35:00,
2013-02-10 19:40:00,53.1,33.4,29.97,SSW,197,0.0,0.0,47,0.00,CLR,,0.86,WeatherDisplay:10.37,2013-02-11 01:40:00,
2013-02-10 19:45:00,52.7,33.0,29.97,SSW,197,0.0,0.0,47,0.00,CLR,,0.86,WeatherDisplay:10.37,2013-02-11 01:45:00,
2013-02-10 19:50:00,52.5,32.9,29.97,SSW,197,0.0,0.0,47,0.00,CLR,,0.86,WeatherDisplay:10.37,2013-02-11 01:50:00,
2013-02-10 19:55:00,52.2,33.1,29.97,SSW,197,0.0,0.0,48,0.00,CLR,,0.86,WeatherDisplay:10.37,2013-02-11 01:55:00,
2013-02-10 20:00:00,51.8,32.7,29.97,SSW,197,0.0,0.0,48,0.00,CLR,,0.86,WeatherDisplay:10.37,2013-02-11 02:00:00,
2013-02-10 20:05:00,51.4,32.9,29.97,SSW,197,0.0,0.0,49,0.00,CLR,,0.86,WeatherDisplay:10.37,2013-02-11 02:05:00,
2013-02-10 20:10:00,51.1,33.1,29.97,SSW,197,0.0,0.0,50,0.00,CLR,,0.86,WeatherDisplay:10.37,2013-02-11 02:10:00,
2013-02-10 20:15:00,50.7,33.7,29.97,SSW,197,0.0,0.0,52,0.00,CLR,,0.86,WeatherDisplay:10.37,2013-02-11 02:15:00,
2013-02-10 20:20:00,50.7,34.2,30.00,SSW,197,0.0,0.0,53,0.00,CLR,,0.86,WeatherDisplay:10.37,2013-02-11 02:20:00,
2013-02-10 20:25:00,50.7,34.2,30.00,SSW,197,0.0,0.0,53,0.00,CLR,,0.86,WeatherDisplay:10.37,2013-02-11 02:25:00,
2013-02-10 20:30:00,50.2,34.2,30.00,SSW,197,0.0,0.0,54,0.00,CLR,,0.86,WeatherDisplay:10.37,2013-02-11 02:30:00,
2013-02-10 20:35:00,49.8,34.7,30.00,SSW,197,0.0,0.0,56,0.00,CLR,,0.86,WeatherDisplay:10.37,2013-02-11 02:35:00,
2013-02-10 20:40:00,49.6,35.0,30.00,SSW,197,0.0,0.0,57,0.00,CLR,,0.86,WeatherDisplay:10.37,2013-02-11 02:40:00,
2013-02-10 20:45:00,49.4,34.8,30.00,SSW,197,0.0,0.0,57,0.00,CLR,,0.86,WeatherDisplay:10.37,2013-02-11 02:45:00,
2013-02-10 20:50:00,49.5,34.8,30.00,SSW,197,0.0,0.0,57,0.00,CLR,,0.86,WeatherDisplay:10.37,2013-02-11 02:50:00,
2013-02-10 20:55:00,48.7,34.6,30.00,SSW,197,0.0,0.0,58,0.00,CLR,,0.86,WeatherDisplay:10.37,2013-02-11 02:55:00,
2013-02-10 21:00:00,48.6,34.4,30.00,SSW,197,0.0,0.0,58,0.00,CLR,,0.86,WeatherDisplay:10.37,2013-02-11 03:00:00,
2013-02-10 21:05:00,48.7,35.0,30.00,SSW,197,0.0,0.0,59,0.00,CLR,,0.86,WeatherDisplay:10.37,2013-02-11 03:05:00,
2013-02-10 21:10:00,48.4,34.7,30.00,SSW,197,0.0,0.0,59,0.00,CLR,,0.86,WeatherDisplay:10.37,2013-02-11 03:10:00,
2013-02-10 21:15:00,48.0,35.2,30.00,SSW,197,0.0,0.0,61,0.00,CLR,,0.86,WeatherDisplay:10.37,2013-02-11 03:15:00,
2013-02-10 21:20:00,47.7,35.3,30.00,SSW,197,0.0,0.0,62,0.00,CLR,,0.86,WeatherDisplay:10.37,2013-02-11 03:20:00,
2013-02-10 21:25:00,47.7,35.7,30.00,SSW,197,0.0,0.0,63,0.00,CLR,,0.86,WeatherDisplay:10.37,2013-02-11 03:25:00,
2013-02-10 21:30:00,47.3,35.7,30.00,SSW,197,0.0,0.0,64,0.00,CLR,,0.86,WeatherDisplay:10.37,2013-02-11 03:30:00,
2013-02-10 21:35:00,47.3,36.1,30.00,SSW,197,0.0,0.0,65,0.00,CLR,,0.86,WeatherDisplay:10.37,2013-02-11 03:35:00,
2013-02-10 21:40:00,47.3,36.5,30.00,SSW,197,0.0,0.0,66,0.00,CLR,,0.86,WeatherDisplay:10.37,2013-02-11 03:40:00,
2013-02-10 21:45:00,46.9,36.2,30.00,SSW,197,0.0,0.0,66,0.00,CLR,,0.86,WeatherDisplay:10.37,2013-02-11 03:45:00,
2013-02-10 21:50:00,46.4,36.0,30.00,SSW,197,0.0,0.0,67,0.00,CLR,,0.86,WeatherDisplay:10.37,2013-02-11 03:50:00,
2013-02-10 21:55:00,46.0,35.7,30.00,SSW,197,0.0,0.0,67,0.00,CLR,,0.86,WeatherDisplay:10.37,2013-02-11 03:55:00,
2013-02-10 22:00:00,46.0,36.1,30.00,SSW,197,0.0,0.0,68,0.00,CLR,,0.86,WeatherDisplay:10.37,2013-02-11 04:00:00,
2013-02-10 22:05:00,46.2,36.2,30.00,SSW,197,0.0,0.0,68,0.00,CLR,,0.86,WeatherDisplay:10.37,2013-02-11 04:05:00,
2013-02-10 22:10:00,46.0,36.1,30.00,SSW,197,0.0,0.0,68,0.00,CLR,,0.86,WeatherDisplay:10.37,2013-02-11 04:10:00,
2013-02-10 22:15:00,46.0,36.4,30.00,SSW,197,0.0,0.0,69,0.00,CLR,,0.86,WeatherDisplay:10.37,2013-02-11 04:15:00,
2013-02-10 22:20:00,45.9,36.3,30.00,SSW,197,0.0,0.0,69,0.00,CLR,,0.86,WeatherDisplay:10.37,2013-02-11 04:20:00,
2013-02-10 22:25:00,46.0,36.4,30.00,SSW,197,0.0,0.0,69,0.00,CLR,,0.86,WeatherDisplay:10.37,2013-02-11 04:25:00,
2013-02-10 22:30:00,46.0,36.1,30.00,SSW,197,0.0,0.0,68,0.00,CLR,,0.86,WeatherDisplay:10.37,2013-02-11 04:30:00,
2013-02-10 22:35:00,46.2,36.6,30.00,SSW,197,0.0,0.0,69,0.00,CLR,,0.86,WeatherDisplay:10.37,2013-02-11 04:35:00,
2013-02-10 22:40:00,45.8,36.2,30.00,SSW,197,0.0,0.0,69,0.00,CLR,,0.86,WeatherDisplay:10.37,2013-02-11 04:40:00,
2013-02-10 22:45:00,45.5,36.3,30.00,SSW,197,0.0,0.0,70,0.00,CLR,,0.86,WeatherDisplay:10.37,2013-02-11 04:45:00,
2013-02-10 22:50:00,45.7,36.5,30.00,SSW,197,0.0,0.0,70,0.00,CLR,,0.86,WeatherDisplay:10.37,2013-02-11 04:50:00,
2013-02-10 22:55:00,46.0,36.8,30.03,SSW,197,0.0,0.0,70,0.00,CLR,,0.86,WeatherDisplay:10.37,2013-02-11 04:55:00,
2013-02-10 23:00:00,46.2,37.0,30.03,SSW,197,0.0,0.0,70,0.00,CLR,,0.86,WeatherDisplay:10.37,2013-02-11 05:00:00,
2013-02-10 23:05:00,46.2,37.0,30.03,SSW,197,0.0,0.0,70,0.00,CLR,,0.86,WeatherDisplay:10.37,2013-02-11 05:05:00,
2013-02-10 23:10:00,46.0,36.8,30.03,SSW,197,0.0,0.0,70,0.00,CLR,,0.86,WeatherDisplay:10.37,2013-02-11 05:10:00,
2013-02-10 23:15:00,46.0,36.8,30.03,SSW,197,0.0,0.0,70,0.00,CLR,,0.86,WeatherDisplay:10.37,2013-02-11 05:15:00,
2013-02-10 23:20:00,46.0,36.8,30.03,SSW,197,0.0,0.0,70,0.00,CLR,,0.86,WeatherDisplay:10.37,2013-02-11 05:20:00,
2013-02-10 23:25:00,46.2,37.0,30.03,SSW,197,0.0,0.0,70,0.00,CLR,,0.86,WeatherDisplay:10.37,2013-02-11 05:25:00,
2013-02-10 23:30:00,46.4,36.8,30.03,SSW,197,0.0,0.0,69,0.00,CLR,,0.86,WeatherDisplay:10.37,2013-02-11 05:30:00,
2013-02-10 23:35:00,46.6,37.0,30.03,SSW,197,0.0,0.0,69,0.00,CLR,,0.86,WeatherDisplay:10.37,2013-02-11 05:35:00,
2013-02-10 23:40:00,46.0,36.4,30.03,SSW,197,0.0,0.0,69,0.00,CLR,,0.86,WeatherDisplay:10.37,2013-02-11 05:40:00,
2013-02-10 23:45:00,45.9,37.0,30.03,SSW,197,0.0,0.0,71,0.00,CLR,,0.86,WeatherDisplay:10.37,2013-02-11 05:45:00,
2013-02-10 23:50:00,46.0,37.2,30.06,SSW,197,0.0,0.0,71,0.00,CLR,,0.86,WeatherDisplay:10.37,2013-02-11 05:50:00,
2013-02-10 23:55:00,46.2,37.7,30.06,SSW,197,0.0,0.0,72,0.00,CLR,,0.86,WeatherDisplay:10.37,2013-02-11 05:55:00,